STARLINK-5734, 55612

Orbit data source: Space-Track

STARLINK-5734, 55612 is a payload satellite owned by SpaceX/Seattle (US) in LEO that was launched on Sun, 12 Feb 2023 UTC via an FALCON 9 launch vehicle from the Air Force Eastern Test Range (AFETR). Payload-class satellites include a variety of spacecraft equipped with specific instruments for various scientific and technological missions. These include communications satellites like Starlink; space stations such as the ISS; scientific satellites like the Hubble; Earth observation satellites from companies like Planet Labs, Umbra, and HawkEye 360; GPS; miniature CubeSats for education and research; and military/defense satellites.

Loading next visibility...
Identifier
55612, 2023-020AV
Orbit
LEO
Country
Flag of USUS
Related business
Manufacturer
SpaceX/Seattle
Mission
Operational Commercial Communications
Bus & Motor
STARLINK, Unknown motor
Mass
305 kg wet, ~290 kg dry
Launch date (UTC)
2023-02-12 (3 years ago)
Launch vehicle
FALCON 9
Launch site
Air Force Eastern Test Range (AFETR)
Object type
Payload
Rocket body
Debris
Shape & HBR
Box + 1 Pan, 10.1 m
Radar Cross Section
13.562 m², Large (>1 m²)

Expand to show TLE details & history
Last TLE update: 16 hours ago

TLE from 16 hours ago
0 STARLINK-5734
1 55612U 23020AV  25340.51727217 -.00005925  00000-0 -42360-3 0  9993
2 55612  43.0017 137.9459 0001351 256.6136 103.4556 15.02561033155059
Epoch: 2025-12-06T12:24Z
TLE epoch observation values (Epoch: 2025-12-06T12:24:52.315Z)
Latitude
-0°
Longitude
-123.81596°
Altitude
558.999 km
Speed
7.584 km/s
True Right ascension
09h 11m 47s
True Declination
0° 00' 00"
Sunlit
Object was in partial shadow at epoch
Visualization orbit readout
Latitude
Unknown
Longitude
Unknown
Altitude
Unknown
Speed
Unknown
Apparent Right ascension
Unknown
Apparent Declination
Unknown
Sunlit
N/A
Visualization observer readout
Local Sidereal Time
02:04:58
Azimuth
Unknown
Elevation
Unknown
Doppler factor
Unknown
Orbital elements
Apogee altitude
561.864 km
Perigee altitude
559.989 km
Semi-major axis
6,939.063 km
Eccentricity
0.00014
Inclination
43.0017°
RAAN
137.9459°
Arg. of periapsis
256.6136°
True anomaly
103.47066°
Mean anomaly
103.4556°
Eccentric anomaly
103.46313°
Mean motion
3.75484 °/min
Orbital period
95.88 mins
BSTAR
-0.0004236
Loading maneuver chart data...
Computing Atmospheric mass density...
Loading historical data...
Loading historical data...
Loading historical data...
Loading historical data...
Loading historical data...
Loading historical data...
Loading historical data...

Documentation

Showing up to 5 results
|